(118) Peitho
ephemeris date magn radius delta ra dec elong phase
Today13 Jun 202613.92.535 AU2.323 AU23h42m-10°57'90.0°23.6°
Opposition14 Sep 202611.92.369 AU1.374 AU23h47m-13°28'168.8°4.7°
(118) Peitho - 2026-06-13
astro.vanbuitenen.nl


 
-1 year
-1 month
-1 day
Now
+1 day
+1 month
+1 year

The interactive orbit chart above shows the body's path through the solar system and its position at the given date. Green and blue lines are shown perpendicular to the ecliptic plane: Green if the path is above the ecliptic plane, blue if it is below. (Left-click and drag to rotate the view; Right-click and drag to move the view; Use scroll wheel to zoom in our out.)

The orbital elements of Peitho are:

            e (Eccentricity)                : 0.1633440
            a (Semimajor axis)              : 2.4377478
            i (Inclination)                 : 7.74630
            Ω (Longitude of ascending node) : 47.62668
            ω (Argument of perihelion)      : 33.13910
            M (Mean anomaly)                : 263.94901
            Epoch                           : 2026 Jun 09

            L (Longitude of perihelion)     : 80.52579
            B (Latitude of perihelion)      : 4.22564
            P (Orbital period in years)     : 3.81            
        

The light curve chart below shows the estimated development of the minor planet's magnitude.


The all-sky chart below shows the path of the minor planet over the same period as the light curve. The current position is marked yellow.





The following chart shows the path of the minor planet in the next few days. The field of view is optimized for (~10x50) binoculars and finderscopes.




Ephemerides:
Date       Time       RA (2000)    DEC (2000)    delta   radius  elong  phase   PA    magn
2026-06-13 00:00 UT   23 42 42.2   -10 57 04     2.323    2.535   90.0   23.6   246   13.9 
2026-06-13 14:16 UT   23 43 18.3   -10 54 43     2.314    2.534   90.4   23.6   246   13.9 
2026-06-14 00:00 UT   23 43 42.7   -10 53 09     2.308    2.533   90.7   23.6   246   13.9 
2026-06-15 00:00 UT   23 44 42.4   -10 49 20     2.294    2.531   91.4   23.6   247   13.9 
2026-06-16 00:00 UT   23 45 41.4   -10 45 37     2.280    2.530   92.1   23.7   247   13.8 
2026-06-17 00:00 UT   23 46 39.5   -10 42 00     2.266    2.528   92.8   23.7   247   13.8 
2026-06-18 00:00 UT   23 47 36.7   -10 38 30     2.252    2.526   93.5   23.7   247   13.8 
2026-06-19 00:00 UT   23 48 33.2   -10 35 07     2.238    2.525   94.2   23.7   247   13.8 
2026-06-20 00:00 UT   23 49 28.7   -10 31 49     2.224    2.523   94.9   23.7   247   13.8 
2026-06-21 00:00 UT   23 50 23.4   -10 28 39     2.210    2.521   95.6   23.6   247   13.8 
2026-06-22 00:00 UT   23 51 17.2   -10 25 35     2.196    2.519   96.4   23.6   247   13.7 
2026-06-23 00:00 UT   23 52 10.1   -10 22 38     2.182    2.518   97.1   23.6   247   13.7 
2026-06-24 00:00 UT   23 53 02.1   -10 19 48     2.168    2.516   97.8   23.6   247   13.7 
2026-06-25 00:00 UT   23 53 53.2   -10 17 04     2.154    2.514   98.5   23.6   248   13.7 
2026-06-26 00:00 UT   23 54 43.3   -10 14 28     2.140    2.513   99.3   23.5   248   13.7 
2026-06-27 00:00 UT   23 55 32.5   -10 11 59     2.126    2.511  100.0   23.5   248   13.7 
2026-06-28 00:00 UT   23 56 20.7   -10 09 37     2.112    2.509  100.8   23.5   248   13.6 
2026-06-29 00:00 UT   23 57 07.9   -10 07 22     2.098    2.507  101.5   23.4   248   13.6 
2026-06-30 00:00 UT   23 57 54.1   -10 05 15     2.085    2.506  102.3   23.4   248   13.6 
2026-07-01 00:00 UT   23 58 39.2   -10 03 15     2.071    2.504  103.0   23.3   248   13.6 
2026-07-02 00:00 UT   23 59 23.4   -10 01 23     2.057    2.502  103.8   23.2   249   13.6 
2026-07-03 00:00 UT   00 00 06.4   -09 59 39     2.044    2.501  104.5   23.2   249   13.6 
2026-07-04 00:00 UT   00 00 48.4   -09 58 02     2.030    2.499  105.3   23.1   249   13.5 
2026-07-05 00:00 UT   00 01 29.3   -09 56 34     2.017    2.497  106.1   23.0   249   13.5 
2026-07-06 00:00 UT   00 02 09.1   -09 55 13     2.003    2.495  106.9   22.9   249   13.5 
2026-07-07 00:00 UT   00 02 47.7   -09 54 00     1.990    2.494  107.6   22.9   249   13.5 
2026-07-08 00:00 UT   00 03 25.2   -09 52 56     1.976    2.492  108.4   22.8   249   13.5 
2026-07-09 00:00 UT   00 04 01.5   -09 51 60     1.963    2.490  109.2   22.7   250   13.4 
2026-07-10 00:00 UT   00 04 36.6   -09 51 12     1.950    2.488  110.0   22.6   250   13.4 
2026-07-11 00:00 UT   00 05 10.5   -09 50 33     1.936    2.487  110.8   22.5   250   13.4 
2026-07-12 00:00 UT   00 05 43.1   -09 50 02     1.923    2.485  111.6   22.4   250   13.4 
2026-07-13 00:00 UT   00 06 14.4   -09 49 40     1.910    2.483  112.5   22.2   250   13.4 


    Terminology:
            
    delta:  distance between minor planet and earth in AU
    radius: distance between minor planet and sun in AU
    magn:   magnitude (brightness) estimate    
    ra:     right ascension in hours (24h = 360deg)
    dec:    declination in degrees
    elong:  elongation in degrees (angle sun-earth-minor planet)    
    phase:  phase angle in degrees (angle sun-minor planet-earth)        
    AU:     Astronomical Unit (mean distance between earth and sun: 149597870.7 km
    

Orbital elements provided by the MPC (Minor Planet Center).
Calculations by a modified version of AAPlus, a C# implementation of the AA+ project by PJ Naughter from the algorithms presented in the book "Astronomical Algorithms" by Jean Meeus.
NGC2000 dso catalog and star labels from VizieR as provided by the Strasbourg astronomical Data Center.
Tycho2 catalog from the ESO archive.